Regional Weather Roundup
Issued by NWS Northern Indiana

Home | Current Version | Previous Version | Graphics & Text | Print | Product List | Glossary On
Versions: 1 2 3 4 5 6 7 8 9 10 11 12 13 14 15 16 17 18 19 20 21 22 23 24 25 26 27 28 29 30 31 32 33 34 35 36 37 38 39 40 41 42 43 44 45 46 47 48 49 50
000
ASUS43 KIWX 241310
RWRIWX

KIWX WEATHER ROUNDUP
NATIONAL WEATHER SERVICE NORTHERN INDIANA
900 AM EDT SUN MAY 24 2015

NOTE: "FAIR" INDICATES FEW OR NO CLOUDS BELOW 12,000 FEET WITH NO
SIGNIFICANT WEATHER AND/OR OBSTRUCTIONS TO VISIBILITY.

* THESE STATIONS ARE NOT UNDER NWS QUALITY CONTROL. THEY ALSO MAY NOT
  REPORT WEATHER SUCH AS PRECIPITATION OR FOG.

INZ001>027-241400-
NORTHERN INDIANA

CITY           SKY/WX    TMP DP  RH WIND       PRES   REMARKS
GARY*          CLOUDY    66  50  55 SE5       30.20S
VALPARAISO     PTSUNNY   66  50  56 S6        30.21S
MICHIGAN CITY* CLOUDY    64  46  52 CALM      30.21S
LAPORTE*       PTSUNNY   67  51  55 S8        30.22S
KNOX*          PTSUNNY   66  46  48 SE9       30.20F
SOUTH BEND     CLOUDY    66  48  52 S8        30.22F
ELKHART*       PTSUNNY   64  50  59 SE6       30.23F
GOSHEN         PTSUNNY   67  53  61 SE7       30.23F
MONTICELLO*    CLOUDY    63  52  66 CALM      30.21S
LOGANSPORT*    CLOUDY    64  48  55 SE6       30.23S
ROCHESTER*     PTSUNNY   66  52  59 SE5       30.23F
WARSAW*        PTSUNNY   66  50  55 S3        30.24F
ANGOLA*        SUNNY     63  55  77 CALM      30.26S
FORT WAYNE     PTSUNNY   67  51  56 SE9       30.26F
HUNTINGTON*    PTSUNNY   65  50  57 S6        30.25S
PERU/GRISSOM   CLOUDY    64  53  67 SE7       30.22S
MARION*        CLOUDY    65  49  57 S9        30.25S

$$
INZ028>050-241400-
CENTRAL INDIANA

CITY           SKY/WX    TMP DP  RH WIND       PRES   REMARKS
LAFAYETTE      CLOUDY    63  53  70 E3        30.20F
KOKOMO*        CLOUDY    64  52  63 S10       30.23S
MUNCIE*        CLOUDY    68  50  52 S9        30.25S
INDIANAPOLIS   PTSUNNY   66  51  58 SE9       30.22S

$$
MIZ043>046-050>051-056>058-064>065-071>073-077>080-241400-
SOUTHWEST LOWER MICHIGAN

CITY           SKY/WX    TMP DP  RH WIND       PRES   REMARKS
BATTLE CREEK   PTSUNNY   67  51  56 S7        30.25F
BENTON HARBOR  CLOUDY    61  50  67 SE7       30.20F
COLDWATER*     CLOUDY    63  51  64 S6        30.25F
HILLSDALE*     PTSUNNY   67  49  53 S6        30.27S
HOLLAND        PTSUNNY   64  51  62 S6        30.22F
GRAND RAPIDS   PTSUNNY   66  50  56 S7        30.22F
KALAMAZOO      PTSUNNY   66  51  58 S5        30.24F
STURGIS*       PTSUNNY   64  48  55 SE7       30.24F
THREE RIVERS*  FAIR      63  51  64 S3        30.24F

$$
OHZ001>008-015>018-024>025-241400-
NORTHWEST OHIO

CITY           SKY/WX    TMP DP  RH WIND       PRES   REMARKS
WAUSEON*       FAIR      68  48  49 SW7       30.28S
DEFIANCE       PTSUNNY   64  51  62 S5        30.27F
FINDLAY        MOSUNNY   70  49  47 SE9       30.28F
TOLEDO EXPRESS PTSUNNY   65  49  56 S6        30.28S
TOLEDO METCALF MOSUNNY   68  47  46 S9        30.29F
LIMA           SUNNY     68  48  48 S10       30.29S

$$
AND FOR LAKE MICHIGAN COASTAL AND OPEN LAKE BUOY OBSERVATIONS

STATION/POSITION TEMP    WIND        PRES    VSBY  WAVE
                 AIR SEA DIR/SP/G                  HT/PER
                 (F)     (DEG/KT/KT) (MB)    (MI)  (FT/S)
CALUMET HARBOR    61      CALM  /  4   N/A
MICHIGAN CITY     65     130/ 10/ 13   N/A
BURNS HARBOR      66     160/  6/ 11 1022.7S
SAINT JOSEPH      64     100/  1/  3 1023.4F
SOUTH LAKE BUOY   45 38  160/  8/  8 1023.0F         0
4 MI NW BRIDGMAN  61 54  190/  8/ 10   N/A           1
MICHIGAN CITY     60 54  160/  8/  8   N/A           1
MICHIGAN CITY CG     61              1024.6   3 1/2  1

$$
&&



USA.gov is the U.S. government's official web portal to all federal, state and local government web resources and services.